Find Starlink 32512

NORAD ID: 62027 Int'l Des: 2024-213 Owner: SPXS Country: US Constellation: starlink operational
LEOCIRCULAR

Current View

Loading 3D Globe...

About Starlink 32512

Starlink 32512 (NORAD 62027) is a starlink constellation satellite (v2 mini) launched Nov 18, 2024 by SPXS of US. It operates in LEO, CIRCULAR orbit with a mass of 730.00 kg.

About Starlink 32512

Description loading...

Upcoming Passes

Passes for default location (London). Set your location on the main map for personalized predictions.

Altitude History

Loading altitude history...

Two-Line Element Set

1 62027U 24213V 26173.81935628 .00011321 00000-0 39385-3 0 9999
2 62027 53.1601 39.5935 0001134 93.1619 266.9511 15.30192437 89256
Epoch: Jun 22, 2026 • Age: 24 hours

Current Status

Altitude 476.0 km
Velocity 7.63 km/s
Sub-Earth Point 26.40°N, 145.1°W
Launch Date Nov 18, 2024
Age 1.5 years
Type internet

Technical Details

Classification Payload
Mass 730.00 kg
Dry Mass 700.00 kg
Total Mass 730.00 kg
Length 0.30 m
Diameter 4.10 m
Span 29.00 m
Shape Box + pan
Manufacturer SPXS
Bus Type Starlink V2M
Phase Status In Orbit
Owner/State SPXS/US

Most Searched